Location: Saint-Palais-sur-Mer
(45.6429°N, 1.0859°W)
Time: 23:34:47
(UTC+01:00)

Vanguard 1 - Pass Details

Date: 09 February 2026
Orbit: 653 x 3818 km, 34.2° (Epoch: 12 March)

Event Time Altitude Azimuth Distance (km) Brightness Sun altitude
Rises 00:51:16 0° 281° (W) 7,803 14.8 -58.6°
Reaches altitude 10° 00:57:17 10° 274° (W) 6,900 14.4 -58.8°
Enters shadow 01:06:23 25° 256° (WSW) 5,678 13.7 -59.0°
